Satellite: NO-83 Catalog number: 40655 Epoch time: 16273.39296517 Element set: 0259 Inclination: 054.9865 deg RA of node: 307.3393 deg Eccentricity: 0.0178382 Arg of perigee: 338.7435 deg Mean anomaly: 020.6404 deg Mean motion: 15.33482394 rev/day Decay rate: 2.2458e-04 rev/day^2 Epoch rev: 04007 Checksum: 333
Satellite: DEORBITSAIL Catalog number: 40719 Epoch time: 16273.17290710 Element set: 999 Inclination: 98.0035 deg RA of node: 163.8263 deg Eccentricity: 0.0015204 Arg of perigee: 263.6443 deg Mean anomaly: 96.3035 deg Mean motion: 14.75701450 rev/day Decay rate: 1.016e-05 rev/day^2 Epoch rev: 6582 Checksum: 285
Satellite: NUDT-PHONESAT Catalog number: 40900 Epoch time: 16273.76378127 Element set: 999 Inclination: 97.4457 deg RA of node: 279.6923 deg Eccentricity: 0.0016390 Arg of perigee: 57.5272 deg Mean anomaly: 302.7544 deg Mean motion: 15.17633600 rev/day Decay rate: 6.962e-05 rev/day^2 Epoch rev: 5693 Checksum: 333
Satellite: XW-2D Catalog number: 40907 Epoch time: 16273.81106342 Element set: 999 Inclination: 97.4514 deg RA of node: 278.4989 deg Eccentricity: 0.0016013 Arg of perigee: 39.7607 deg Mean anomaly: 320.4795 deg Mean motion: 15.13953350 rev/day Decay rate: 2.528e-05 rev/day^2 Epoch rev: 5683 Checksum: 326
Satellite: XW-2F Catalog number: 40910 Epoch time: 16273.80912171 Element set: 999 Inclination: 97.4542 deg RA of node: 278.8045 deg Eccentricity: 0.0016985 Arg of perigee: 38.4010 deg Mean anomaly: 321.8428 deg Mean motion: 15.14540722 rev/day Decay rate: 3.531e-05 rev/day^2 Epoch rev: 5672 Checksum: 301
Satellite: XW-2B Catalog number: 40911 Epoch time: 16273.81187744 Element set: 999 Inclination: 97.4561 deg RA of node: 278.7343 deg Eccentricity: 0.0015908 Arg of perigee: 39.9881 deg Mean anomaly: 320.2519 deg Mean motion: 15.13930184 rev/day Decay rate: 2.472e-05 rev/day^2 Epoch rev: 5673 Checksum: 332
Satellite: DCBB Catalog number: 40912 Epoch time: 16273.75628988 Element set: 999 Inclination: 97.4544 deg RA of node: 279.8315 deg Eccentricity: 0.0017311 Arg of perigee: 33.2014 deg Mean anomaly: 51.9462 deg Mean motion: 15.16527938 rev/day Decay rate: 3.342e-05 rev/day^2 Epoch rev: 5680 Checksum: 322
Satellite: TW-1C Catalog number: 40926 Epoch time: 16273.86574935 Element set: 999 Inclination: 97.2672 deg RA of node: 309.7029 deg Eccentricity: 0.0014602 Arg of perigee: 39.5285 deg Mean anomaly: 47.4922 deg Mean motion: 15.38250351 rev/day Decay rate: 1.3268e-04 rev/day^2 Epoch rev: 5684 Checksum: 335
Satellite: TW-1A Catalog number: 40928 Epoch time: 16273.79360384 Element set: 999 Inclination: 97.2622 deg RA of node: 308.1601 deg Eccentricity: 0.0015424 Arg of perigee: 55.8187 deg Mean anomaly: 358.3919 deg Mean motion: 15.34050942 rev/day Decay rate: 5.141e-05 rev/day^2 Epoch rev: 5675 Checksum: 321
Satellite: IO-86 Catalog number: 40931 Epoch time: 16272.56474379 Element set: 999 Inclination: 6.0010 deg RA of node: 298.0782 deg Eccentricity: 0.0013008 Arg of perigee: 142.2654 deg Mean anomaly: 217.8349 deg Mean motion: 14.76484399 rev/day Decay rate: 7.60e-06 rev/day^2 Epoch rev: 5423 Checksum: 326
Satellite: GomX-3 Catalog number: 40949 Epoch time: 16273.86080667 Element set: 999 Inclination: 51.6214 deg RA of node: 205.8435 deg Eccentricity: 0.0002952 Arg of perigee: 111.4973 deg Mean anomaly: 248.6352 deg Mean motion: 16.01323877 rev/day Decay rate: 2.68430e-03 rev/day^2 Epoch rev: 5669 Checksum: 330
Satellite: LQSat Catalog number: 40958 Epoch time: 16273.79515068 Element set: 999 Inclination: 98.0073 deg RA of node: 347.2705 deg Eccentricity: 0.0018146 Arg of perigee: 175.7819 deg Mean anomaly: 184.3545 deg Mean motion: 14.72902586 rev/day Decay rate: 1.10e-06 rev/day^2 Epoch rev: 5278 Checksum: 333
Satellite: AO-85 Catalog number: 40967 Epoch time: 16273.32624280 Element set: 0271 Inclination: 064.7786 deg RA of node: 290.0416 deg Eccentricity: 0.0191017 Arg of perigee: 171.7842 deg Mean anomaly: 188.6473 deg Mean motion: 14.75173123 rev/day Decay rate: 4.20e-06 rev/day^2 Epoch rev: 03863 Checksum: 311
Satellite: ATHENOXAT-1 Catalog number: 41168 Epoch time: 16273.38668955 Element set: 999 Inclination: 14.9948 deg RA of node: 273.1990 deg Eccentricity: 0.0012389 Arg of perigee: 4.5525 deg Mean anomaly: 28.4055 deg Mean motion: 15.10455938 rev/day Decay rate: 3.797e-05 rev/day^2 Epoch rev: 4353 Checksum: 342
Satellite: ChubuSat-2 Catalog number: 41338 Epoch time: 16273.50068506 Element set: 999 Inclination: 31.0040 deg RA of node: 327.6285 deg Eccentricity: 0.0014021 Arg of perigee: 359.2248 deg Mean anomaly: 0.8364 deg Mean motion: 14.99504876 rev/day Decay rate: 9.23e-06 rev/day^2 Epoch rev: 3382 Checksum: 293
Satellite: ChubuSat-3 Catalog number: 41339 Epoch time: 16273.53252364 Element set: 999 Inclination: 31.0122 deg RA of node: 327.0128 deg Eccentricity: 0.0013682 Arg of perigee: 5.1208 deg Mean anomaly: 354.9619 deg Mean motion: 14.99727125 rev/day Decay rate: 7.06e-06 rev/day^2 Epoch rev: 3380 Checksum: 288
Satellite: Horyu-4 Catalog number: 41340 Epoch time: 16273.53982023 Element set: 999 Inclination: 31.0059 deg RA of node: 326.0148 deg Eccentricity: 0.0014355 Arg of perigee: 11.6009 deg Mean anomaly: 348.4955 deg Mean motion: 15.00211623 rev/day Decay rate: 1.396e-05 rev/day^2 Epoch rev: 3383 Checksum: 275
Satellite: OUFTI-1 Catalog number: 41458 Epoch time: 16273.52129647 Element set: 999 Inclination: 98.2144 deg RA of node: 289.9952 deg Eccentricity: 0.0179266 Arg of perigee: 79.9838 deg Mean anomaly: 282.1594 deg Mean motion: 15.01693201 rev/day Decay rate: 4.727e-05 rev/day^2 Epoch rev: 2343 Checksum: 352
Satellite: e-st@r-II Catalog number: 41459 Epoch time: 16273.52312658 Element set: 999 Inclination: 98.2145 deg RA of node: 289.9872 deg Eccentricity: 0.0179136 Arg of perigee: 80.1096 deg Mean anomaly: 282.0325 deg Mean motion: 15.01640622 rev/day Decay rate: 4.445e-05 rev/day^2 Epoch rev: 2343 Checksum: 314
Satellite: AAUSAT4 Catalog number: 41460 Epoch time: 16273.83385123 Element set: 999 Inclination: 98.2090 deg RA of node: 290.3691 deg Eccentricity: 0.0176293 Arg of perigee: 78.0674 deg Mean anomaly: 284.0295 deg Mean motion: 15.02032227 rev/day Decay rate: 6.555e-05 rev/day^2 Epoch rev: 2348 Checksum: 316
Satellite: MinXSS Catalog number: 41474 Epoch time: 16271.95676880 Element set: 999 Inclination: 51.6407 deg RA of node: 261.2341 deg Eccentricity: 0.0002234 Arg of perigee: 117.7599 deg Mean anomaly: 242.4142 deg Mean motion: 15.62872542 rev/day Decay rate: 5.4432e-04 rev/day^2 Epoch rev: 2097 Checksum: 309
Satellite: CADRE Catalog number: 41475 Epoch time: 16273.78022532 Element set: 999 Inclination: 51.6366 deg RA of node: 250.1336 deg Eccentricity: 0.0002975 Arg of perigee: 94.1812 deg Mean anomaly: 265.9525 deg Mean motion: 15.68140559 rev/day Decay rate: 1.16723e-03 rev/day^2 Epoch rev: 2128 Checksum: 308
Satellite: NODES 1 Catalog number: 41477 Epoch time: 16273.37933670 Element set: 999 Inclination: 51.6377 deg RA of node: 254.9648 deg Eccentricity: 0.0002438 Arg of perigee: 110.2948 deg Mean anomaly: 249.8308 deg Mean motion: 15.60942651 rev/day Decay rate: 4.0057e-04 rev/day^2 Epoch rev: 2109 Checksum: 325
Satellite: NODES 2 Catalog number: 41478 Epoch time: 16273.38305655 Element set: 999 Inclination: 51.6376 deg RA of node: 254.9884 deg Eccentricity: 0.0002379 Arg of perigee: 108.9544 deg Mean anomaly: 251.1707 deg Mean motion: 15.60872052 rev/day Decay rate: 3.9091e-04 rev/day^2 Epoch rev: 2109 Checksum: 327
Satellite: LO-87 Catalog number: 41557 Epoch time: 16273.80214380 Element set: 999 Inclination: 97.4903 deg RA of node: 347.1410 deg Eccentricity: 0.0014069 Arg of perigee: 199.9794 deg Mean anomaly: 305.2721 deg Mean motion: 15.25843520 rev/day Decay rate: 3.789e-05 rev/day^2 Epoch rev: 1870 Checksum: 336
Satellite: NuSat2 Catalog number: 41558 Epoch time: 16273.81240247 Element set: 999 Inclination: 97.4933 deg RA of node: 347.1636 deg Eccentricity: 0.0013654 Arg of perigee: 197.8067 deg Mean anomaly: 302.0793 deg Mean motion: 15.25705705 rev/day Decay rate: 3.705e-05 rev/day^2 Epoch rev: 1870 Checksum: 321
Satellite: Lapan A3 Catalog number: 41603 Epoch time: 16273.81180481 Element set: 999 Inclination: 97.5007 deg RA of node: 332.3341 deg Eccentricity: 0.0012127 Arg of perigee: 263.3199 deg Mean anomaly: 161.0029 deg Mean motion: 15.19138321 rev/day Decay rate: 6.73e-06 rev/day^2 Epoch rev: 1512 Checksum: 274
Satellite: Swayam Catalog number: 41607 Epoch time: 16273.40128703 Element set: 999 Inclination: 97.4987 deg RA of node: 331.9039 deg Eccentricity: 0.0013228 Arg of perigee: 266.0510 deg Mean anomaly: 93.9212 deg Mean motion: 15.19445160 rev/day Decay rate: 4.803e-05 rev/day^2 Epoch rev: 1498 Checksum: 304
Satellite: OBJECT A Catalog number: 41783 Epoch time: 16273.78265153 Element set: 999 Inclination: 98.2780 deg RA of node: 331.2083 deg Eccentricity: 0.0041534 Arg of perigee: 262.3309 deg Mean anomaly: 232.6302 deg Mean motion: 14.60730362 rev/day Decay rate: -2.96e-06 rev/day^2 Epoch rev: 53 Checksum: 287
Satellite: OBJECT B Catalog number: 41784 Epoch time: 16273.70461020 Element set: 999 Inclination: 98.2061 deg RA of node: 331.2360 deg Eccentricity: 0.0030710 Arg of perigee: 256.3067 deg Mean anomaly: 218.0667 deg Mean motion: 14.63112604 rev/day Decay rate: 4.90e-06 rev/day^2 Epoch rev: 48 Checksum: 266
Satellite: Pratham Catalog number: 41785 Epoch time: 16273.70385263 Element set: 999 Inclination: 98.2064 deg RA of node: 331.2389 deg Eccentricity: 0.0030452 Arg of perigee: 256.4181 deg Mean anomaly: 215.3658 deg Mean motion: 14.63224437 rev/day Decay rate: 2.36e-06 rev/day^2 Epoch rev: 48 Checksum: 302
